When you browse on this site, cookies collect data to enhance your experience and personalize the content and advertising you see.
Visit our Privacy Policy to learn more. By continuing to use the site, you agree to this use of cookies and data.
  • en Belgique
  • Liste des pays
  • À 7 jours
  • Température de l'eau
  • Carte satellitaire
  • Carte météo
  • Widgets météo
  • user-avatar
    Se connecter

    Météo par heure à Budilovka

    Ce jour, 24 Avril, Mercredi

    Heure Température Précipitation Vent Pression Humidité
    00:00 +12°C° 0 mm 3 m/s 749 mmHg 55%
    01:00 +12°C° 0 mm 3 m/s 749 mmHg 57%
    02:00 +11°C° 0 mm 3 m/s 749 mmHg 60%
    03:00 +10°C° 0 mm 2 m/s 749 mmHg 60%
    04:00 +10°C° 0 mm 2 m/s 749 mmHg 62%
    05:00 +10°C° 0 mm 2 m/s 749 mmHg 64%
    06:00 +9°C° 0 mm 2 m/s 750 mmHg 65%
    07:00 +11°C° 0 mm 3 m/s 750 mmHg 61%
    08:00 +13°C° 0 mm 3 m/s 750 mmHg 56%
    09:00 +16°C° 0 mm 3 m/s 750 mmHg 50%
    10:00 +17°C° 0 mm 3 m/s 750 mmHg 46%
    11:00 +18°C° 0 mm 3 m/s 750 mmHg 42%
    12:00 +19°C° 0 mm 4 m/s 750 mmHg 38%
    13:00 +20°C° 0 mm 4 m/s 750 mmHg 36%
    14:00 +21°C° 0 mm 4 m/s 750 mmHg 35%
    15:00 +22°C° 0 mm 3 m/s 749 mmHg 32%
    16:00 +22°C° 0 mm 3 m/s 749 mmHg 35%
    17:00 +21°C° 0 mm 2 m/s 749 mmHg 37%
    18:00 +21°C° 0 mm 2 m/s 749 mmHg 39%
    19:00 +20°C° 0 mm 2 m/s 749 mmHg 43%
    20:00 +18°C° 0 mm 2 m/s 749 mmHg 47%
    21:00 +16°C° 0 mm 2 m/s 749 mmHg 50%
    22:00 +16°C° 0 mm 2 m/s 749 mmHg 52%
    23:00 +15°C° 0 mm 2 m/s 749 mmHg 54%

    Demain, 25 Avril, Jeudi

    Heure Température Précipitation Vent Pression Humidité
    00:00 +14°C° 0 mm 2 m/s 749 mmHg 56%
    01:00 +14°C° 0 mm 2 m/s 749 mmHg 57%
    02:00 +14°C° 0 mm 2 m/s 749 mmHg 58%
    03:00 +13°C° 0 mm 2 m/s 749 mmHg 59%
    04:00 +13°C° 0 mm 2 m/s 749 mmHg 60%
    05:00 +13°C° 0 mm 2 m/s 749 mmHg 62%
    06:00 +12°C° 0 mm 2 m/s 749 mmHg 63%
    07:00 +14°C° 0 mm 2 m/s 749 mmHg 58%
    08:00 +16°C° 0 mm 2 m/s 749 mmHg 53%
    09:00 +18°C° 0 mm 2 m/s 749 mmHg 47%
    10:00 +19°C° 0 mm 2 m/s 749 mmHg 43%
    11:00 +21°C° 0 mm 2 m/s 749 mmHg 39%
    12:00 +23°C° 0 mm 2 m/s 749 mmHg 35%
    13:00 +24°C° 0 mm 2 m/s 749 mmHg 34%
    14:00 +24°C° 0 mm 2 m/s 749 mmHg 32%
    15:00 +24°C° 0 mm 2 m/s 748 mmHg 31%
    16:00 +24°C° 0 mm 2 m/s 748 mmHg 33%
    17:00 +24°C° 0 mm 2 m/s 748 mmHg 35%
    18:00 +24°C° 0 mm 2 m/s 747 mmHg 37%
    19:00 +21°C° 0 mm 2 m/s 747 mmHg 41%
    20:00 +19°C° 0 mm 2 m/s 747 mmHg 45%
    21:00 +18°C° 0 mm 2 m/s 747 mmHg 49%
    22:00 +17°C° 0 mm 2 m/s 747 mmHg 51%
    23:00 +16°C° 0 mm 2 m/s 747 mmHg 52%

    Après-demain, 26 Avril, Vendredi

    Heure Température Précipitation Vent Pression Humidité
    00:00 +16°C° 0 mm 2 m/s 747 mmHg 54%
    01:00 +15°C° 0 mm 2 m/s 747 mmHg 56%
    02:00 +15°C° 0 mm 2 m/s 747 mmHg 58%
    03:00 +14°C° 0 mm 2 m/s 746 mmHg 60%
    04:00 +14°C° 0 mm 2 m/s 746 mmHg 61%
    05:00 +14°C° 0 mm 1 m/s 746 mmHg 62%
    06:00 +14°C° 0 mm 1 m/s 746 mmHg 63%
    07:00 +15°C° 0 mm 1 m/s 746 mmHg 60%
    08:00 +18°C° 0 mm 1 m/s 746 mmHg 56%
    09:00 +19°C° 0 mm 1 m/s 747 mmHg 52%
    10:00 +20°C° 0 mm 1 m/s 747 mmHg 48%
    11:00 +22°C° 0 mm 1 m/s 747 mmHg 43%
    12:00 +24°C° 0 mm 1 m/s 747 mmHg 39%
    13:00 +23°C° 0 mm 1 m/s 746 mmHg 39%
    14:00 +21°C° 0 mm 0 m/s 746 mmHg 39%
    15:00 +21°C° 0 mm 0 m/s 746 mmHg 39%
    16:00 +20°C° 0.1 mm 0 m/s 745 mmHg 42%
    17:00 +19°C° 0.1 mm 0 m/s 745 mmHg 46%
    18:00 +19°C° 0.1 mm 0 m/s 745 mmHg 49%
    19:00 +18°C° 0.4 mm 0 m/s 745 mmHg 53%
    20:00 +19°C° 0.4 mm 1 m/s 745 mmHg 57%
    21:00 +18°C° 0.4 mm 1 m/s 745 mmHg 61%
    22:00 +16°C° 0.4 mm 1 m/s 745 mmHg 64%
    23:00 +15°C° 0.4 mm 0 m/s 744 mmHg 67%

    27 Avril, Samedi

    Heure Température Précipitation Vent Pression Humidité
    00:00 +14°C° 0.4 mm 0 m/s 744 mmHg 70%
    01:00 +14°C° 0 mm 0 m/s 744 mmHg 71%
    02:00 +14°C° 0 mm 1 m/s 744 mmHg 72%
    03:00 +14°C° 0 mm 1 m/s 744 mmHg 74%
    04:00 +13°C° 0 mm 1 m/s 743 mmHg 74%
    05:00 +13°C° 0 mm 1 m/s 743 mmHg 75%
    06:00 +13°C° 0 mm 2 m/s 743 mmHg 75%
    07:00 +15°C° 0 mm 2 m/s 743 mmHg 69%
    08:00 +17°C° 0 mm 3 m/s 743 mmHg 63%
    09:00 +18°C° 0 mm 3 m/s 743 mmHg 57%
    10:00 +19°C° 0 mm 3 m/s 742 mmHg 51%
    11:00 +21°C° 0 mm 4 m/s 742 mmHg 46%
    12:00 +22°C° 0 mm 4 m/s 742 mmHg 40%
    13:00 +22°C° 0 mm 4 m/s 741 mmHg 41%
    14:00 +21°C° 0 mm 4 m/s 741 mmHg 42%
    15:00 +21°C° 0 mm 4 m/s 741 mmHg 42%
    16:00 +21°C° 0 mm 4 m/s 740 mmHg 46%
    17:00 +20°C° 0 mm 3 m/s 740 mmHg 49%
    18:00 +20°C° 0 mm 3 m/s 739 mmHg 53%
    19:00 +19°C° 0 mm 3 m/s 739 mmHg 56%
    20:00 +17°C° 0 mm 3 m/s 739 mmHg 60%
    21:00 +16°C° 0 mm 3 m/s 739 mmHg 63%
    22:00 +14°C° 0 mm 3 m/s 739 mmHg 64%
    23:00 +14°C° 0 mm 3 m/s 739 mmHg 66%

    28 Avril, Dimanche

    Heure Température Précipitation Vent Pression Humidité
    00:00 +13°C° 0 mm 3 m/s 738 mmHg 67%
    01:00 +13°C° 0 mm 3 m/s 738 mmHg 69%
    02:00 +12°C° 0 mm 3 m/s 738 mmHg 70%
    03:00 +12°C° 0 mm 3 m/s 738 mmHg 71%
    04:00 +11°C° 0 mm 3 m/s 738 mmHg 73%
    05:00 +11°C° 0 mm 3 m/s 738 mmHg 75%
    06:00 +11°C° 0 mm 3 m/s 737 mmHg 76%
    07:00 +13°C° 0 mm 3 m/s 737 mmHg 72%
    08:00 +14°C° 0 mm 3 m/s 737 mmHg 67%
    09:00 +17°C° 0 mm 3 m/s 737 mmHg 62%
    10:00 +17°C° 0.5 mm 3 m/s 737 mmHg 64%
    11:00 +17°C° 0.5 mm 2 m/s 737 mmHg 67%
    12:00 +17°C° 0.5 mm 2 m/s 737 mmHg 70%
    13:00 +16°C° 3 mm 2 m/s 737 mmHg 77%
    14:00 +14°C° 3 mm 3 m/s 737 mmHg 84%
    15:00 +13°C° 3 mm 3 m/s 737 mmHg 91%
    16:00 +12°C° 1.3 mm 5 m/s 738 mmHg 89%
    17:00 +11°C° 1.3 mm 6 m/s 738 mmHg 87%
    18:00 +10°C° 1.3 mm 7 m/s 738 mmHg 85%
    19:00 +10°C° 0 mm 7 m/s 739 mmHg 84%
    20:00 +9°C° 0 mm 7 m/s 740 mmHg 82%
    21:00 +8°C° 0 mm 7 m/s 740 mmHg 80%
    22:00 +6°C° 0 mm 7 m/s 741 mmHg 77%
    23:00 +6°C° 0 mm 7 m/s 741 mmHg 73%

    29 Avril, Lundi

    Heure Température Précipitation Vent Pression Humidité
    00:00 +5°C° 0 mm 7 m/s 742 mmHg 70%
    01:00 +5°C° 0 mm 7 m/s 742 mmHg 70%
    02:00 +4°C° 0 mm 7 m/s 742 mmHg 70%
    03:00 +4°C° 0 mm 7 m/s 743 mmHg 70%
    04:00 +3°C° 0 mm 7 m/s 743 mmHg 70%
    05:00 +2°C° 0 mm 6 m/s 744 mmHg 69%
    06:00 +2°C° 0 mm 6 m/s 744 mmHg 68%
    07:00 +2°C° 0 mm 6 m/s 745 mmHg 63%
    08:00 +3°C° 0 mm 7 m/s 745 mmHg 58%
    09:00 +3°C° 0 mm 7 m/s 746 mmHg 53%
    10:00 +4°C° 0 mm 7 m/s 746 mmHg 50%
    11:00 +5°C° 0 mm 7 m/s 746 mmHg 47%
    12:00 +5°C° 0 mm 7 m/s 746 mmHg 44%
    13:00 +7°C° 0 mm 6 m/s 746 mmHg 43%
    14:00 +7°C° 0 mm 6 m/s 746 mmHg 43%
    15:00 +7°C° 0 mm 6 m/s 746 mmHg 42%
    16:00 +7°C° 0 mm 5 m/s 745 mmHg 44%
    17:00 +7°C° 0 mm 5 m/s 745 mmHg 46%
    18:00 +7°C° 0 mm 5 m/s 745 mmHg 48%
    19:00 +6°C° 0 mm 4 m/s 745 mmHg 51%
    20:00 +5°C° 0 mm 4 m/s 746 mmHg 54%
    21:00 +4°C° 0 mm 3 m/s 746 mmHg 58%
    22:00 +4°C° 0 mm 3 m/s 746 mmHg 58%
    23:00 +3°C° 0 mm 3 m/s 746 mmHg 59%
    Voir plus